FLOCK 2B-7

Last updated on Sept. 21, 2016, 8:03 p.m. UTC

1 40956U 98067HH  16265.22518117  .17390066  12156-4  26753-3 0  9998
2 40956  51.6042 244.8158 0025911 158.9090 201.5900 16.45759519 55241

Satellite is not in orbit.